Home   Weather   Lexington   Past weeks

Flag for USA Past Weather in Lexington, Virginia, USA — Yesterday and Last 2 Weeks

Now
59 °F

Sunny.


Feels Like: 58 °F
Forecast: 60 / 78 °F
Wind: 7 mph from West

Location: Hot Springs / Ingalls

Current Time: Sep 27, 2016 at 11:46:46 AM

Latest Report: Sep 27, 2016 at 11:15 AM


Visibility: 10 mi

Pressure: 30.05 "Hg

Humidity: 66%

Dew Point: 48 °F

Location of LexingtonLocation

Past Weather in Lexington — Graph

°F

Lexington Temperature Yesterday

Maximum temperature yesterday: 54 °F (at 1:55 PM)
Minimum temperature yesterday: 49 °F (at 6:15 PM)
Average temperature yesterday: 51 °F

High & Low Weather Summary for the Past Weeks

 TemperatureHumidityPressure
High81 °F (Sep 23, 3:55 PM)100% (Sep 13, 6:15 AM)30.34 "Hg (Sep 13, 6:15 AM)
Low45 °F (Sep 27, 9:15 AM)27% (Sep 14, 5:15 PM)30.03 "Hg (Sep 27, 5:50 AM)
Average64 °F81%30.23 "Hg
* Reported Sep 12 10:15 AM — Sep 27 10:35 AM, Lexington, Weather by CustomWeather, © 2016

Note: Actual official high and low records may vary slightly from our data, if they occured in-between our weather recording intervals... More about our weather records

Advertising

Lexington Weather History for the Previous 24 Hours

Scroll right to see more
 ConditionsComfort  
Time TempWeatherWind HumidityBarometerVisibility
10:35 AM
Tue, Sep 27
56 °FSunny.9 mph87%30.05 "Hg10 mi
10:15 AM56 °FSunny.9 mph91%30.05 "Hg10 mi
9:55 AM53 °FSunny.12 mph100%30.05 "Hg10 mi
9:35 AM45 °FScattered clouds.14 mph100%30.04 "Hg10 mi
9:15 AM45 °FFog.13 mph100%30.05 "Hg0 mi
8:50 AM45 °FFog.13 mph100%30.05 "Hg0 mi
7:55 AM45 °FFog.13 mph100%30.04 "Hg0 mi
7:20 AM45 °FFog.10 mph100%30.04 "Hg0 mi
6:55 AM45 °FFog.10 mph100%30.04 "Hg4 mi
6:35 AM45 °FFog.13 mph100%30.04 "Hg1 mi
6:10 AM46 °FFog.10 mph100%30.04 "Hg2 mi
5:50 AM46 °FMostly cloudy.12 mph100%30.03 "Hg7 mi
5:15 AM47 °FFog.14 mph100%30.04 "Hg0 mi
4:50 AM47 °FFog.12 mph100%30.04 "Hg0 mi
4:35 AM47 °FFog.13 mph100%30.04 "Hg0 mi
4:15 AM48 °FFog.13 mph100%30.04 "Hg0 mi
3:36 AM48 °FFog.10 mph100%30.05 "Hg0 mi
3:10 AM49 °FFog.10 mph100%30.06 "Hg0 mi
2:55 AM49 °FFog.12 mph100%30.07 "Hg0 mi
2:36 AM50 °FFog.12 mph100%30.06 "Hg0 mi
2:15 AM50 °FFog.10 mph100%30.07 "Hg0 mi
1:55 AM50 °FFog.14 mph100%30.06 "Hg0 mi
1:15 AM51 °FFog.15 mph100%30.06 "Hg0 mi
12:55 AM51 °FFog.12 mph100%30.08 "Hg0 mi
12:35 AM51 °FFog.9 mph100%30.07 "Hg0 mi
12:15 AM51 °FLight rain. Mostly cloudy.8 mph100%30.08 "Hg5 mi
11:55 PM
Mon, Sep 26
52 °FRain. Mostly cloudy.9 mph100%30.08 "Hg4 mi
11:35 PM53 °FRain. Low clouds.6 mph100%30.09 "Hg0 mi
11:15 PM53 °FLight rain. Low clouds.6 mph100%30.09 "Hg2 mi
10:55 PM52 °FRain. Overcast.5 mph100%30.09 "Hg2 mi
10:35 PM51 °FFog.7 mph100%30.09 "Hg4 mi
10:20 PM51 °FFog.8 mph100%30.09 "Hg4 mi
9:50 PM50 °FPartly cloudy.6 mph100%30.10 "Hg7 mi
9:10 PM51 °FPassing clouds.9 mph100%30.10 "Hg10 mi
9:00 PM51 °FPassing clouds.6 mph100%30.10 "Hg7 mi
8:15 PM50 °FPassing clouds.6 mph100%30.10 "Hg10 mi
7:55 PM50 °FFog.5 mph100%30.10 "Hg3 mi
7:15 PM50 °FFog.5 mph100%30.11 "Hg0 mi
6:55 PM50 °FFog.6 mph100%30.11 "Hg0 mi
6:15 PM49 °FLight rain. More clouds than sun.3 mph100%30.09 "Hg10 mi
5:55 PM50 °FStrong thunderstorms. Low clouds.13 mph100%30.09 "Hg1 mi
5:15 PM51 °FThundershowers. Low clouds.6 mph100%30.06 "Hg0 mi
4:55 PM51 °FHeavy rain. Low clouds.9 mph100%30.06 "Hg0 mi
4:35 PM51 °FHeavy rain. Low clouds.7 mph100%30.06 "Hg0 mi
4:15 PM51 °FHeavy rain. Low clouds.7 mph100%30.06 "Hg0 mi
3:55 PM51 °FRain. Low clouds.7 mph100%30.08 "Hg0 mi
3:15 PM52 °FRain. Low clouds.6 mph100%30.09 "Hg0 mi
2:55 PM52 °FRain. Low clouds.7 mph100%30.10 "Hg0 mi
2:15 PM53 °FLight rain. Low clouds.5 mph100%30.11 "Hg0 mi
1:55 PM54 °FLight rain. Low clouds.5 mph100%30.13 "Hg0 mi
1:15 PM51 °FLight rain. Low clouds.3 mph100%30.14 "Hg0 mi
12:55 PM51 °FRain. Low clouds.7 mph100%30.15 "Hg0 mi
12:10 PM51 °FLight rain. Low clouds.6 mph100%30.16 "Hg0 mi
11:50 AM51 °FRain. Low clouds.6 mph100%30.17 "Hg0 mi
11:15 AM51 °FLight rain. Low clouds.5 mph100%30.18 "Hg0 mi
Weather by CustomWeather, © 2016

See weather overviewHow to use our weather pages